ACA44MA CYQB-CYUL

Flight info

Callsign ACA44MA
Flight time 0h 28m
Altitude 14000
Route TIBOS ROCKT3
Aircraft A321/M-SDE3FGHIRWY/LB1

Departure

Time 2026-05-07 19:59
Airport Quebec Jean Lesage International Airport (CYQB)

Arrival

Time 2026-05-07 20:27
Airport Montreal / Pierre Elliott Trudeau International Airport (CYUL)
Time Latitude Longitude Altitude Speed Heading
2026-05-07 19:25 46.79216 -71.38484 244 ft 0 kts 100°
2026-05-07 19:33 46.79216 -71.38485 244 ft 0 kts 100°
2026-05-07 19:41 46.79216 -71.38486 244 ft 0 kts 100°
2026-05-07 19:50 46.79216 -71.38488 244 ft 2 kts 100°
2026-05-07 19:50 46.79222 -71.38524 244 ft 4 kts 97°
2026-05-07 19:50 46.79222 -71.38550 244 ft 4 kts 77°
2026-05-07 19:51 46.79211 -71.38582 244 ft 4 kts 37°
2026-05-07 19:51 46.79196 -71.38593 244 ft 1 kts 11°
2026-05-07 19:51 46.79194 -71.38594 244 ft 2 kts 11°
2026-05-07 19:52 46.79193 -71.38594 244 ft 0 kts 11°
2026-05-07 19:55 46.79194 -71.38594 244 ft 1 kts 11°
2026-05-07 19:55 46.79232 -71.38582 244 ft 11 kts 11°
2026-05-07 19:55 46.79324 -71.38555 244 ft 14 kts 11°
2026-05-07 19:56 46.79398 -71.38498 244 ft 12 kts 43°
2026-05-07 19:56 46.79468 -71.38397 244 ft 15 kts 44°
2026-05-07 19:56 46.79537 -71.38311 244 ft 11 kts 24°
2026-05-07 19:56 46.79602 -71.38261 244 ft 13 kts 44°
2026-05-07 19:57 46.79679 -71.38149 243 ft 15 kts 44°
2026-05-07 19:57 46.79764 -71.38053 244 ft 17 kts 17°
2026-05-07 19:57 46.79868 -71.38047 244 ft 10 kts 360°
2026-05-07 19:57 46.79880 -71.38047 244 ft 0 kts 360°
2026-05-07 19:58 46.79901 -71.38047 244 ft 8 kts 358°
2026-05-07 19:58 46.79963 -71.38124 246 ft 13 kts 275°
2026-05-07 19:58 46.79915 -71.38229 245 ft 17 kts 225°
2026-05-07 19:59 46.79668 -71.38583 246 ft 83 kts 224°
2026-05-07 19:59 46.79122 -71.39372 248 ft 136 kts 225°
2026-05-07 19:59 46.78398 -71.40397 662 ft 143 kts 229°
2026-05-07 19:59 46.77702 -71.41441 1328 ft 143 kts 228°
2026-05-07 20:00 46.77019 -71.42504 1965 ft 144 kts 232°
2026-05-07 20:00 46.76298 -71.43634 2331 ft 162 kts 231°
2026-05-07 20:00 46.75477 -71.44918 2586 ft 184 kts 231°
2026-05-07 20:00 46.74548 -71.46362 2820 ft 207 kts 230°
2026-05-07 20:01 46.73497 -71.47985 3107 ft 234 kts 229°
2026-05-07 20:01 46.72177 -71.49546 3752 ft 253 kts 216°
2026-05-07 20:01 46.70685 -71.50951 4676 ft 257 kts 216°
2026-05-07 20:01 46.69177 -71.52359 5693 ft 258 kts 215°
2026-05-07 20:02 46.67650 -71.53778 6590 ft 262 kts 216°
2026-05-07 20:02 46.66102 -71.55218 7528 ft 266 kts 216°
2026-05-07 20:02 46.64534 -71.56672 8498 ft 269 kts 216°
2026-05-07 20:02 46.62947 -71.58142 9487 ft 272 kts 216°
2026-05-07 20:03 46.61369 -71.59605 10337 ft 277 kts 216°
2026-05-07 20:03 46.59683 -71.61177 10643 ft 300 kts 215°
2026-05-07 20:03 46.57847 -71.62889 11022 ft 317 kts 215°
2026-05-07 20:03 46.55994 -71.64604 11722 ft 322 kts 215°
2026-05-07 20:04 46.54064 -71.66385 12528 ft 326 kts 215°
2026-05-07 20:04 46.52164 -71.68134 13298 ft 330 kts 216°
2026-05-07 20:04 46.50213 -71.69931 13844 ft 334 kts 215°
2026-05-07 20:04 46.48248 -71.71740 13996 ft 334 kts 215°
2026-05-07 20:05 46.46298 -71.73533 14027 ft 330 kts 215°
2026-05-07 20:05 46.44364 -71.75310 14031 ft 329 kts 215°
2026-05-07 20:05 46.42434 -71.77082 14030 ft 329 kts 215°
2026-05-07 20:05 46.40502 -71.78857 14034 ft 328 kts 215°
2026-05-07 20:06 46.38661 -71.80786 14032 ft 326 kts 224°
2026-05-07 20:06 46.37055 -71.82997 14033 ft 312 kts 226°
2026-05-07 20:06 46.35460 -71.85208 14036 ft 322 kts 226°
2026-05-07 20:06 46.33831 -71.87458 14033 ft 325 kts 226°
2026-05-07 20:07 46.32194 -71.89712 14040 ft 325 kts 226°
2026-05-07 20:07 46.30551 -71.91971 14037 ft 326 kts 226°
2026-05-07 20:07 46.28907 -71.94232 14036 ft 326 kts 226°
2026-05-07 20:07 46.27266 -71.96491 14043 ft 326 kts 226°
2026-05-07 20:08 46.25621 -71.98751 14046 ft 326 kts 226°
2026-05-07 20:08 46.23976 -72.01010 14038 ft 326 kts 226°
2026-05-07 20:08 46.22334 -72.03267 14044 ft 326 kts 226°
2026-05-07 20:08 46.20690 -72.05523 14046 ft 327 kts 226°
2026-05-07 20:09 46.19041 -72.07789 14050 ft 330 kts 226°
2026-05-07 20:09 46.17312 -72.10164 14035 ft 356 kts 226°
2026-05-07 20:09 46.15459 -72.12705 14042 ft 378 kts 226°
2026-05-07 20:10 46.11618 -72.17947 14045 ft 370 kts 226°
2026-05-07 20:10 46.09749 -72.20472 14051 ft 367 kts 226°
2026-05-07 20:10 46.07890 -72.22991 14047 ft 367 kts 226°
2026-05-07 20:10 46.06035 -72.25509 14044 ft 367 kts 226°
2026-05-07 20:11 46.04181 -72.28029 14043 ft 366 kts 226°
2026-05-07 20:11 46.02328 -72.30545 14050 ft 367 kts 226°
2026-05-07 20:11 46.00468 -72.33069 14046 ft 368 kts 226°
2026-05-07 20:11 45.98611 -72.35585 14046 ft 366 kts 226°
2026-05-07 20:12 45.96760 -72.38090 14048 ft 365 kts 226°
2026-05-07 20:12 45.95038 -72.40738 14052 ft 362 kts 235°
2026-05-07 20:12 45.93740 -72.43819 14060 ft 360 kts 244°
2026-05-07 20:12 45.92568 -72.46991 14055 ft 360 kts 244°
2026-05-07 20:13 45.91390 -72.50162 14054 ft 360 kts 244°
2026-05-07 20:13 45.90207 -72.53334 14052 ft 360 kts 244°
2026-05-07 20:13 45.89027 -72.56502 14053 ft 360 kts 244°
2026-05-07 20:13 45.87849 -72.59670 14067 ft 360 kts 244°
2026-05-07 20:14 45.86666 -72.62841 14061 ft 360 kts 244°
2026-05-07 20:14 45.85482 -72.66005 14065 ft 360 kts 243°
2026-05-07 20:14 45.84295 -72.69166 14070 ft 360 kts 243°
2026-05-07 20:14 45.83109 -72.72326 14081 ft 360 kts 243°
2026-05-07 20:15 45.81926 -72.75481 13735 ft 359 kts 244°
2026-05-07 20:15 45.80742 -72.78638 13474 ft 360 kts 244°
2026-05-07 20:15 45.79555 -72.81805 13200 ft 361 kts 243°
2026-05-07 20:15 45.78361 -72.84978 12923 ft 362 kts 243°
2026-05-07 20:16 45.77159 -72.88156 12652 ft 363 kts 243°
2026-05-07 20:16 45.75952 -72.91344 12330 ft 365 kts 243°
2026-05-07 20:16 45.74740 -72.94538 11827 ft 366 kts 243°
2026-05-07 20:16 45.73525 -72.97745 11331 ft 367 kts 243°
2026-05-07 20:17 45.72337 -73.00985 10807 ft 367 kts 248°
2026-05-07 20:17 45.71661 -73.04490 10289 ft 365 kts 262°
2026-05-07 20:17 45.71293 -73.07933 9907 ft 334 kts 262°
2026-05-07 20:17 45.70965 -73.11036 9669 ft 307 kts 263°
2026-05-07 20:18 45.70543 -73.13905 9508 ft 284 kts 257°
2026-05-07 20:18 45.70058 -73.16558 9230 ft 268 kts 257°
2026-05-07 20:18 45.69601 -73.19096 8970 ft 262 kts 257°
2026-05-07 20:18 45.69151 -73.21601 8701 ft 259 kts 257°
2026-05-07 20:19 45.68702 -73.24088 8429 ft 257 kts 257°
2026-05-07 20:19 45.68259 -73.26539 8160 ft 254 kts 257°
2026-05-07 20:19 45.67815 -73.28987 7896 ft 254 kts 257°
2026-05-07 20:19 45.67372 -73.31428 7294 ft 254 kts 257°
2026-05-07 20:20 45.66928 -73.33868 6690 ft 252 kts 257°
2026-05-07 20:20 45.66486 -73.36280 6139 ft 249 kts 257°
2026-05-07 20:20 45.66047 -73.38665 5531 ft 247 kts 257°
2026-05-07 20:20 45.65612 -73.41029 4912 ft 245 kts 257°
2026-05-07 20:21 45.65186 -73.43336 4622 ft 232 kts 257°
2026-05-07 20:21 45.64789 -73.45495 4483 ft 217 kts 257°
2026-05-07 20:21 45.64417 -73.47514 4381 ft 205 kts 257°
2026-05-07 20:21 45.64056 -73.49476 4296 ft 204 kts 257°
2026-05-07 20:22 45.63697 -73.51431 4201 ft 203 kts 257°
2026-05-07 20:22 45.63300 -73.53356 4128 ft 203 kts 248°
2026-05-07 20:22 45.62470 -73.54998 3959 ft 208 kts 227°
2026-05-07 20:22 45.61422 -73.56375 3702 ft 203 kts 227°
2026-05-07 20:23 45.60392 -73.57725 3435 ft 199 kts 227°
2026-05-07 20:23 45.59399 -73.59031 3181 ft 189 kts 227°
2026-05-07 20:23 45.58468 -73.60256 2922 ft 176 kts 228°
2026-05-07 20:23 45.57604 -73.61391 2696 ft 161 kts 229°
2026-05-07 20:24 45.56815 -73.62430 2497 ft 147 kts 230°
2026-05-07 20:24 45.56085 -73.63392 2302 ft 140 kts 229°
2026-05-07 20:24 45.55376 -73.64327 2105 ft 138 kts 229°
2026-05-07 20:24 45.54684 -73.65240 1919 ft 134 kts 231°
2026-05-07 20:25 45.54003 -73.66136 1738 ft 133 kts 230°
2026-05-07 20:25 45.53332 -73.67019 1552 ft 131 kts 230°
2026-05-07 20:25 45.52662 -73.67899 1361 ft 131 kts 230°
2026-05-07 20:25 45.51995 -73.68777 1152 ft 130 kts 231°
2026-05-07 20:26 45.51326 -73.69666 991 ft 132 kts 227°
2026-05-07 20:26 45.50650 -73.70552 784 ft 132 kts 228°
2026-05-07 20:26 45.49961 -73.71453 608 ft 135 kts 227°
2026-05-07 20:26 45.49285 -73.72336 427 ft 130 kts 229°
2026-05-07 20:27 45.48629 -73.73200 246 ft 130 kts 229°
2026-05-07 20:27 45.47962 -73.74069 127 ft 122 kts 229°
2026-05-07 20:27 45.47432 -73.74776 112 ft 82 kts 221°
2026-05-07 20:27 45.47134 -73.75162 113 ft 32 kts 222°
2026-05-07 20:28 45.47012 -73.75319 109 ft 29 kts 222°
2026-05-07 20:28 45.46821 -73.75539 107 ft 37 kts 211°
2026-05-07 20:28 45.46612 -73.75630 106 ft 26 kts 191°
2026-05-07 20:28 45.46443 -73.75682 104 ft 20 kts 193°
2026-05-07 20:29 45.46356 -73.75710 104 ft 11 kts 193°
2026-05-07 20:29 45.46294 -73.75726 105 ft 11 kts 186°
2026-05-07 20:29 45.46208 -73.75727 102 ft 10 kts 177°
2026-05-07 20:29 45.46133 -73.75721 102 ft 11 kts 178°
2026-05-07 20:30 45.46067 -73.75741 104 ft 9 kts 226°
2026-05-07 20:30 45.46054 -73.75846 104 ft 11 kts 268°
2026-05-07 20:30 45.46038 -73.75946 103 ft 10 kts 226°
2026-05-07 20:30 45.45980 -73.75958 105 ft 8 kts 177°
2026-05-07 20:31 45.45925 -73.75954 105 ft 8 kts 177°
2026-05-07 20:31 45.45875 -73.75949 105 ft 7 kts 176°
2026-05-07 20:31 45.45831 -73.75941 105 ft 6 kts 164°
2026-05-07 20:31 45.45766 -73.75860 105 ft 18 kts 127°
2026-05-07 20:32 45.45722 -73.75761 104 ft 9 kts 105°
2026-05-07 20:32 45.45749 -73.75695 105 ft 8 kts 15°
2026-05-07 20:32 45.45801 -73.75685 105 ft 7 kts
2026-05-07 20:32 45.45824 -73.75681 105 ft 0 kts